Time,TemperatureF,DewpointF,PressureIn,WindDirection,WindDirectionDegrees,WindSpeedMPH,WindSpeedGustMPH,Humidity,HourlyPrecipIn,Conditions,Clouds,dailyrainin,SolarRadiationWatts/m^2,SoftwareType,DateUTC
2013-08-06 00:01:00,62.0,38.0,-100.00,SE,144,1.0,5.0,41,0.00,,,0.00,0.000000,,2013-08-06 06:01:00,
2013-08-06 00:11:00,62.0,38.0,-100.00,SE,144,1.0,5.0,41,0.00,,,0.00,0.000000,,2013-08-06 06:11:00,
2013-08-06 00:22:00,62.0,38.0,-100.00,SE,144,1.0,5.0,41,0.00,,,0.00,0.000000,,2013-08-06 06:22:00,
2013-08-06 00:52:00,60.0,39.0,-100.00,SE,139,0.0,7.0,46,0.00,,,-99.99,0.000000,,2013-08-06 06:52:00,
2013-08-06 01:01:00,60.0,39.0,-100.00,SE,139,0.0,7.0,46,0.00,,,-99.99,0.000000,,2013-08-06 07:01:00,
2013-08-06 01:11:00,60.0,39.0,-100.00,SE,139,0.0,7.0,46,0.00,,,-99.99,0.000000,,2013-08-06 07:11:00,
2013-08-06 01:22:00,60.0,39.0,-100.00,SE,139,0.0,7.0,46,0.00,,,-99.99,0.000000,,2013-08-06 07:22:00,
2013-08-06 01:53:00,58.0,39.0,-100.00,SE,142,0.0,6.0,49,0.00,,,0.00,0.000000,,2013-08-06 07:53:00,
2013-08-06 02:01:00,58.0,39.0,-100.00,SE,142,0.0,6.0,49,0.00,,,0.00,0.000000,,2013-08-06 08:01:00,
2013-08-06 02:11:00,58.0,39.0,-100.00,SE,142,0.0,6.0,49,0.00,,,0.00,0.000000,,2013-08-06 08:11:00,
2013-08-06 02:21:00,58.0,39.0,-100.00,SE,142,0.0,6.0,49,0.00,,,0.00,0.000000,,2013-08-06 08:21:00,
2013-08-06 02:52:00,54.0,40.0,-100.00,NE,50,0.0,6.0,59,0.00,,,0.00,0.000000,,2013-08-06 08:52:00,
2013-08-06 03:01:00,54.0,40.0,-100.00,NE,50,0.0,6.0,59,0.00,,,0.00,0.000000,,2013-08-06 09:01:00,
2013-08-06 03:11:00,54.0,40.0,-100.00,NE,50,0.0,6.0,59,0.00,,,0.00,0.000000,,2013-08-06 09:11:00,
2013-08-06 03:22:00,54.0,40.0,-100.00,NE,50,0.0,6.0,59,0.00,,,0.00,0.000000,,2013-08-06 09:22:00,
2013-08-06 03:52:00,52.0,40.0,-100.00,ESE,118,0.0,3.0,63,0.00,,,0.00,0.000000,,2013-08-06 09:52:00,
2013-08-06 04:01:00,52.0,40.0,-100.00,ESE,118,0.0,3.0,63,0.00,,,0.00,0.000000,,2013-08-06 10:01:00,
2013-08-06 04:11:00,52.0,40.0,-100.00,ESE,118,0.0,3.0,63,0.00,,,0.00,0.000000,,2013-08-06 10:11:00,
2013-08-06 04:22:00,52.0,40.0,-100.00,ESE,118,0.0,3.0,63,0.00,,,0.00,0.000000,,2013-08-06 10:22:00,
2013-08-06 04:53:00,50.0,40.0,-100.00,NW,312,0.0,3.0,69,0.00,,,0.00,0.000000,,2013-08-06 10:53:00,
2013-08-06 05:01:00,50.0,40.0,-100.00,NW,312,0.0,3.0,69,0.00,,,0.00,0.000000,,2013-08-06 11:01:00,
2013-08-06 05:11:00,50.0,40.0,-100.00,NW,312,0.0,3.0,69,0.00,,,0.00,0.000000,,2013-08-06 11:11:00,
2013-08-06 05:21:00,50.0,40.0,-100.00,NW,312,0.0,3.0,69,0.00,,,0.00,0.000000,,2013-08-06 11:21:00,
2013-08-06 05:53:00,49.0,41.0,-100.00,ESE,116,0.0,0.0,75,0.00,,,0.00,0.000000,,2013-08-06 11:53:00,
2013-08-06 06:01:00,49.0,41.0,-100.00,ESE,116,0.0,0.0,75,0.00,,,0.00,0.000000,,2013-08-06 12:01:00,
2013-08-06 06:11:00,49.0,41.0,-100.00,ESE,116,0.0,0.0,75,0.00,,,0.00,0.000000,,2013-08-06 12:11:00,
2013-08-06 06:21:00,49.0,41.0,-100.00,ESE,116,0.0,0.0,75,0.00,,,0.00,0.000000,,2013-08-06 12:21:00,
2013-08-06 06:52:00,47.0,41.0,-100.00,ESE,111,0.0,0.0,79,0.00,,,0.00,0.000000,,2013-08-06 12:52:00,
2013-08-06 07:01:00,47.0,41.0,-100.00,ESE,111,0.0,0.0,79,0.00,,,0.00,0.000000,,2013-08-06 13:01:00,
2013-08-06 07:11:00,47.0,41.0,-100.00,ESE,111,0.0,0.0,79,0.00,,,0.00,0.000000,,2013-08-06 13:11:00,
2013-08-06 07:22:00,47.0,41.0,-100.00,ESE,111,0.0,0.0,79,0.00,,,0.00,0.000000,,2013-08-06 13:22:00,
2013-08-06 08:01:00,45.0,40.0,-100.00,East,98,0.0,0.0,82,0.00,,,0.00,5.000000,,2013-08-06 14:01:00,
2013-08-06 08:11:00,45.0,40.0,-100.00,East,98,0.0,0.0,82,0.00,,,0.00,5.000000,,2013-08-06 14:11:00,
2013-08-06 08:21:00,45.0,40.0,-100.00,East,98,0.0,0.0,82,0.00,,,0.00,5.000000,,2013-08-06 14:21:00,
2013-08-06 08:53:00,46.0,41.0,-100.00,NE,54,0.0,0.0,81,0.00,,,0.00,25.000000,,2013-08-06 14:53:00,
2013-08-06 09:02:00,46.0,41.0,-100.00,NE,54,0.0,0.0,81,0.00,,,0.00,25.000000,,2013-08-06 15:02:00,
2013-08-06 09:11:00,46.0,41.0,-100.00,NE,54,0.0,0.0,81,0.00,,,0.00,25.000000,,2013-08-06 15:11:00,
2013-08-06 09:22:00,46.0,41.0,-100.00,NE,54,0.0,0.0,81,0.00,,,0.00,25.000000,,2013-08-06 15:22:00,
2013-08-06 09:52:00,58.0,44.0,-100.00,WNW,296,0.0,0.0,59,0.00,,,0.00,265.000000,,2013-08-06 15:52:00,
2013-08-06 10:01:00,58.0,44.0,-100.00,WNW,296,0.0,0.0,59,0.00,,,0.00,265.000000,,2013-08-06 16:01:00,
2013-08-06 10:11:00,58.0,44.0,-100.00,WNW,296,0.0,0.0,59,0.00,,,0.00,265.000000,,2013-08-06 16:11:00,
2013-08-06 10:22:00,58.0,44.0,-100.00,WNW,296,0.0,0.0,59,0.00,,,0.00,265.000000,,2013-08-06 16:22:00,
2013-08-06 10:52:00,62.0,42.0,-100.00,WNW,295,4.0,4.0,48,0.00,,,0.00,492.000000,,2013-08-06 16:52:00,
2013-08-06 11:02:00,62.0,42.0,-100.00,WNW,295,4.0,4.0,48,0.00,,,0.00,492.000000,,2013-08-06 17:02:00,
2013-08-06 11:11:00,62.0,42.0,-100.00,WNW,295,4.0,4.0,48,0.00,,,0.00,492.000000,,2013-08-06 17:11:00,
2013-08-06 11:21:00,62.0,42.0,-100.00,WNW,295,4.0,4.0,48,0.00,,,0.00,492.000000,,2013-08-06 17:21:00,
2013-08-06 11:52:00,69.0,43.0,-100.00,WNW,291,4.0,7.0,39,-99.99,,,0.00,662.000000,,2013-08-06 17:52:00,
2013-08-06 12:01:00,69.0,43.0,-100.00,WNW,291,4.0,7.0,39,-99.99,,,0.00,662.000000,,2013-08-06 18:01:00,
2013-08-06 12:11:00,69.0,43.0,-100.00,WNW,291,4.0,7.0,39,-99.99,,,0.00,662.000000,,2013-08-06 18:11:00,
2013-08-06 12:21:00,69.0,43.0,-100.00,WNW,291,4.0,7.0,39,-99.99,,,0.00,662.000000,,2013-08-06 18:21:00,
2013-08-06 12:52:00,78.0,41.0,-100.00,WNW,283,6.0,10.0,27,0.00,,,0.00,807.000000,,2013-08-06 18:52:00,
2013-08-06 13:01:00,78.0,41.0,-100.00,WNW,283,6.0,10.0,27,0.00,,,0.00,807.000000,,2013-08-06 19:01:00,
2013-08-06 13:11:00,78.0,41.0,-100.00,WNW,283,6.0,10.0,27,0.00,,,0.00,807.000000,,2013-08-06 19:11:00,
2013-08-06 13:21:00,78.0,41.0,-100.00,WNW,283,6.0,10.0,27,0.00,,,0.00,807.000000,,2013-08-06 19:21:00,
2013-08-06 13:52:00,81.0,41.0,-100.00,South,190,3.0,11.0,24,0.00,,,0.00,936.000000,,2013-08-06 19:52:00,
2013-08-06 14:01:00,81.0,41.0,-100.00,South,190,3.0,11.0,24,0.00,,,0.00,936.000000,,2013-08-06 20:01:00,
2013-08-06 14:11:00,81.0,41.0,-100.00,South,190,3.0,11.0,24,0.00,,,0.00,936.000000,,2013-08-06 20:11:00,
2013-08-06 14:22:00,81.0,41.0,-100.00,South,190,3.0,11.0,24,0.00,,,0.00,936.000000,,2013-08-06 20:22:00,
2013-08-06 14:52:00,83.0,39.0,-100.00,WNW,284,8.0,12.0,21,0.00,,,0.00,907.000000,,2013-08-06 20:52:00,
2013-08-06 15:01:00,83.0,39.0,-100.00,WNW,284,8.0,12.0,21,0.00,,,0.00,907.000000,,2013-08-06 21:01:00,
2013-08-06 15:11:00,83.0,39.0,-100.00,WNW,284,8.0,12.0,21,0.00,,,0.00,907.000000,,2013-08-06 21:11:00,
2013-08-06 15:22:00,83.0,39.0,-100.00,WNW,284,8.0,12.0,21,0.00,,,0.00,907.000000,,2013-08-06 21:22:00,
2013-08-06 15:52:00,82.0,36.0,-100.00,WNW,303,8.0,14.0,19,0.00,,,0.00,880.000000,,2013-08-06 21:52:00,
2013-08-06 16:01:00,82.0,36.0,-100.00,WNW,303,8.0,14.0,19,0.00,,,0.00,880.000000,,2013-08-06 22:01:00,
2013-08-06 16:11:00,82.0,36.0,-100.00,WNW,303,8.0,14.0,19,0.00,,,0.00,880.000000,,2013-08-06 22:11:00,
2013-08-06 16:21:00,82.0,36.0,-100.00,WNW,303,8.0,14.0,19,0.00,,,0.00,880.000000,,2013-08-06 22:21:00,
2013-08-06 16:53:00,82.0,34.0,-100.00,WSW,250,4.0,14.0,18,0.00,,,0.00,754.000000,,2013-08-06 22:53:00,
2013-08-06 17:01:00,82.0,34.0,-100.00,WSW,250,4.0,14.0,18,0.00,,,0.00,754.000000,,2013-08-06 23:01:00,
2013-08-06 17:11:00,82.0,34.0,-100.00,WSW,250,4.0,14.0,18,0.00,,,0.00,754.000000,,2013-08-06 23:11:00,
2013-08-06 17:22:00,82.0,34.0,-100.00,WSW,250,4.0,14.0,18,0.00,,,0.00,754.000000,,2013-08-06 23:22:00,
2013-08-06 17:52:00,83.0,34.0,-100.00,WNW,286,7.0,18.0,17,0.00,,,0.00,769.000000,,2013-08-06 23:52:00,
2013-08-06 18:01:00,83.0,34.0,-100.00,WNW,286,7.0,18.0,17,0.00,,,0.00,769.000000,,2013-08-07 00:01:00,
2013-08-06 18:11:00,83.0,34.0,-100.00,WNW,286,7.0,18.0,17,0.00,,,0.00,769.000000,,2013-08-07 00:11:00,
2013-08-06 18:21:00,83.0,34.0,-100.00,WNW,286,7.0,18.0,17,0.00,,,0.00,769.000000,,2013-08-07 00:21:00,
2013-08-06 18:52:00,83.0,35.0,-100.00,SSE,158,5.0,16.0,18,0.00,,,0.00,590.000000,,2013-08-07 00:52:00,
2013-08-06 19:01:00,83.0,35.0,-100.00,SSE,158,5.0,16.0,18,0.00,,,0.00,590.000000,,2013-08-07 01:01:00,
2013-08-06 19:11:00,83.0,35.0,-100.00,SSE,158,5.0,16.0,18,0.00,,,0.00,590.000000,,2013-08-07 01:11:00,
2013-08-06 19:21:00,83.0,35.0,-100.00,SSE,158,5.0,16.0,18,0.00,,,0.00,590.000000,,2013-08-07 01:21:00,
2013-08-06 19:52:00,84.0,36.0,-100.00,WNW,283,4.0,14.0,18,0.00,,,0.00,338.000000,,2013-08-07 01:52:00,
2013-08-06 20:02:00,84.0,36.0,-100.00,WNW,283,4.0,14.0,18,0.00,,,0.00,338.000000,,2013-08-07 02:02:00,
2013-08-06 20:11:00,84.0,36.0,-100.00,WNW,283,4.0,14.0,18,0.00,,,0.00,338.000000,,2013-08-07 02:11:00,
2013-08-06 20:22:00,84.0,36.0,-100.00,WNW,283,4.0,14.0,18,0.00,,,0.00,338.000000,,2013-08-07 02:22:00,
2013-08-06 20:53:00,79.0,38.0,-100.00,West,279,3.0,12.0,23,0.00,,,0.00,210.000000,,2013-08-07 02:53:00,
2013-08-06 21:01:00,79.0,38.0,-100.00,West,279,3.0,12.0,23,0.00,,,0.00,210.000000,,2013-08-07 03:01:00,
2013-08-06 21:11:00,79.0,38.0,-100.00,West,279,3.0,12.0,23,0.00,,,0.00,210.000000,,2013-08-07 03:11:00,
2013-08-06 21:22:00,79.0,38.0,-100.00,West,279,3.0,12.0,23,0.00,,,0.00,210.000000,,2013-08-07 03:22:00,
2013-08-06 21:52:00,70.0,40.0,-100.00,SSE,152,0.0,6.0,34,0.00,,,0.00,42.000000,,2013-08-07 03:52:00,
2013-08-06 22:01:00,70.0,40.0,-100.00,SSE,152,0.0,6.0,34,0.00,,,0.00,42.000000,,2013-08-07 04:01:00,
2013-08-06 22:11:00,70.0,40.0,-100.00,SSE,152,0.0,6.0,34,0.00,,,0.00,42.000000,,2013-08-07 04:11:00,
2013-08-06 22:21:00,70.0,40.0,-100.00,SSE,152,0.0,6.0,34,0.00,,,0.00,42.000000,,2013-08-07 04:21:00,
2013-08-06 22:52:00,64.0,38.0,-100.00,SE,145,0.0,5.0,38,0.00,,,0.00,0.000000,,2013-08-07 04:52:00,
2013-08-06 23:02:00,64.0,38.0,-100.00,SE,145,0.0,5.0,38,0.00,,,0.00,0.000000,,2013-08-07 05:02:00,
2013-08-06 23:11:00,64.0,38.0,-100.00,SE,145,0.0,5.0,38,0.00,,,0.00,0.000000,,2013-08-07 05:11:00,
2013-08-06 23:22:00,64.0,38.0,-100.00,SE,145,0.0,5.0,38,0.00,,,0.00,0.000000,,2013-08-07 05:22:00,
2013-08-06 23:52:00,61.0,38.0,-100.00,SSE,150,0.0,5.0,42,0.00,,,0.00,0.000000,,2013-08-07 05:52:00,